Showing default

HAWK-2A, 47505

Orbit data source: Space-Track

HAWK-2A, 47505 is a payload satellite owned by HawkEye 360 (US) in SSO that was launched on Sun, 24 Jan 2021 UTC via an FALCON 9 launch vehicle from the Air Force Eastern Test Range (AFETR). Payload-class satellites include a variety of spacecraft equipped with specific instruments for various scientific and technological missions. These include communications satellites like Starlink; space stations such as the ISS; scientific satellites like the Hubble; Earth observation satellites from companies like Planet Labs, Umbra, and HawkEye 360; GPS; miniature CubeSats for education and research; and military/defense satellites.

Loading next visibility...
Identifier
47505, 2021-006CW
Orbit
SSO
Country
Flag of USUS
Related business
Manufacturer
UTIAS-SFL
Mission
Operational Commercial Sigint
Bus & Motor
DEFIANT, Unknown motor
Mass
31 kg wet, 30 kg dry
Launch date (UTC)
2021-01-24 (5 years ago)
Launch vehicle
FALCON 9
Launch site
Air Force Eastern Test Range (AFETR)
Object type
Payload
Rocket body
Debris
Shape & HBR
Box + 2 Pan, 1.0 m
Radar Cross Section
0.348 m², Medium (>0.1 m² and < 1m²)

Expand to show TLE details & history
Last TLE update: 13 hours ago

TLE from 13 hours ago
0 HAWK-2A
1 47505U 21006CW  26126.67871871  .00005886  00000-0  18016-3 0  9998
2 47505  97.2353 172.4786 0006273  10.5768 349.5606 15.34184484293135
Epoch: 2026-05-06T16:17Z
TLE epoch observation values (Epoch: 2026-05-06T16:17:21.296Z)
Latitude
-0.00003°
Longitude
63.60411°
Altitude
462.237 km
Speed
7.638 km/s
True Right ascension
11h 29m 54s
True Declination
0° 00' 00"
Sunlit
Object was in full shadow at epoch
Visualization orbit readout
Latitude
Unknown
Longitude
Unknown
Altitude
Unknown
Speed
Unknown
Apparent Right ascension
Unknown
Apparent Declination
Unknown
Sunlit
N/A
Visualization observer readout
Local Sidereal Time
13:12:43
Azimuth
Unknown
Elevation
Unknown
Doppler factor
Unknown
Orbital elements
Apogee altitude
464.573 km
Perigee altitude
455.994 km
Semi-major axis
6,838.421 km
Eccentricity
0.00063
Inclination
97.2353°
RAAN
172.4786°
Arg. of periapsis
10.5768°
True anomaly
349.54757°
Mean anomaly
349.5606°
Eccentric anomaly
349.55408°
Mean motion
3.83804 °/min
Orbital period
93.8 mins
BSTAR
0.00018016
Loading maneuver chart data...
Computing Atmospheric mass density...

Documentation

Showing up to 5 results
|